Overview Statistics Trail Chart Weather Telemetry Raw packets
 

This is the latest recevied weather packets stored in our database for station/object W0WC. If no packets are shown the sender has not sent any weather packets the latest 10 day(s).

<< 78 79 80 81 82 83 84 >>
Time Temp. Humidity Pressure Rain* Wind** Luminosity Snow
1788124789 38.89° C 29% 1014.4 hPa 0 mm - 477 W/m² -
1788124484 37.78° C 29% 1013.9 hPa 0 mm - 482 W/m² -
1788124180 38.33° C 28% 1014.4 hPa 0 mm - 499 W/m² -
1788123879 38.33° C 29% 1014.2 hPa 0 mm - 516 W/m² -
1788123577 38.89° C 27% 1014.4 hPa 0 mm - 513 W/m² -
1788123276 38.33° C 28% 1014.6 hPa 0 mm - 520 W/m² -
1788122972 38.89° C 27% 1014.4 hPa 0 mm - 544 W/m² -
1788122671 38.33° C 28% 1014.5 hPa 0 mm - 564 W/m² -
1788122366 38.33° C 29% 1014.6 hPa 0 mm - 578 W/m² -
1788122062 37.78° C 30% 1014.6 hPa 0 mm - 586 W/m² -
1788121762 37.78° C 29% 1014.6 hPa 0 mm - 601 W/m² -
1788121457 37.78° C 29% 1014.8 hPa 0 mm - 606 W/m² -
1788121153 38.33° C 29% 1014.8 hPa 0 mm - 600 W/m² -
1788120852 38.33° C 30% 1014.9 hPa 0 mm - 619 W/m² -
1788120548 38.33° C 31% 1014.9 hPa 0 mm - 646 W/m² -
1788120248 38.33° C 31% 1014.9 hPa 0 mm - 658 W/m² -
1788119943 37.78° C 32% 1014.9 hPa 0 mm - 650 W/m² -
1788119642 37.78° C 32% 1015.1 hPa 0 mm - 661 W/m² -
1788119341 38.89° C 30% 1015.1 hPa 0 mm - 686 W/m² -
1788119041 38.33° C 32% 1015.1 hPa 0 mm - 702 W/m² -
1788118735 38.33° C 32% 1015.2 hPa 0 mm - 692 W/m² -
1788118434 37.78° C 32% 1015.1 hPa 0 mm - 682 W/m² -
1788118130 38.33° C 32% 1015.3 hPa 0 mm - 646 W/m² -
1788117830 37.22° C 32% 1015.1 hPa 0 mm - 552 W/m² -
1788117526 37.78° C 33% 1015.3 hPa 0 mm - 649 W/m² -

* Rain latest hour (hover to see other rain measurements)
** Current wind speed in m/s (hover to see current wind gust speed)